Location: Castelnau
(43.6639°N, 0.8431°W)
Time: 16:14:30
(UTC+00:00)

Cosmos 2181 Rocket - Pass Details

Date: 13 January 2026
Orbit: 952 x 1013 km, 82.9° (Epoch: 10 February)

Event Time Altitude Azimuth Distance (km) Brightness Sun altitude
Rises 06:01:11 0° 347° (NNW) 3,713 6.8 -16.5°
Reaches altitude 10° 06:03:45 10° 343° (NNW) 2,768 6.1 -16.1°
Maximum altitude 06:09:54 53° 269° (W) 1,213 4.1 -15.0°
Drops below altitude 10° 06:16:05 10° 194° (SSW) 2,781 6.4 -13.9°
Sets 06:18:40 0° 190° (S) 3,730 7.1 -13.5°
